Wendover, UT

2:02 PM MDT on June 26, 2017 (GMT -0600)
Wendover

Weather History for KENV - February, 2014

Change the Weather History Date:

Saturday, February 1, 2014

  Actual Average Record
Temperature  
Mean Temperature 30 °F -  
Max Temperature 37 °F 36 °F 62 °F (2003)
Min Temperature 24 °F 19 °F -12 °F (1937)
Degree Days  
Heating Degree Days 34    
Moisture  
Dew Point 15 °F    
Average Humidity 50    
Maximum Humidity 64    
Minimum Humidity 38    
Precipitation  
Precipitation 0.00 in - - ()
Sea Level Pressure  
Sea Level Pressure 30.02 in    
Wind  
Wind Speed 11 mph (NW)    
Max Wind Speed 22 mph    
Max Gust Speed 26 mph    
Visibility 10 miles    
Events      
Averages and records for this station are not official NWS values.
T = Trace of Precipitation, MM = Missing Value Source: NWS Daily Summary

Daily Weather History Graph

Daily Weather History Graph

Search for Another Location

Airport or City:

Trip Planner

Search our weather history database for the weather conditions in past years. The results will help you decide how hot, cold, wet, or windy it might be!

Date:

Astronomy

Feb. 01, 2014 Rise Set
Actual Time 7:46 AM MST 5:53 PM MST
Civil Twilight 7:17 AM MST 6:22 PM MST
Nautical Twilight 6:44 AM MST 6:55 PM MST
Astronomical Twilight 6:12 AM MST 7:27 PM MST
Moon 8:37 AM MST (2/1) 8:35 PM MST (2/1)
Length of Visible Light 11h 05m
Length of Day
10h 07m
Waxing Crescent, 5% of the Moon is Illuminated
Feb 1
Waxing Crescent
Feb 6
First Quarter
Feb 14
Full
Feb 22
Last Quarter
Mar 1
New

Hourly Weather History & Observations

Time (MST) Temp. Windchill Dew Point Humidity Pressure Visibility Wind Dir Wind Speed Gust Speed Precip Events Conditions
12:15 AM 28.4 °F 19.7 °F 14.0 °F 55% 29.93 in 10.0 mi NW 9.2 mph - N/A   Clear
12:35 AM 30.2 °F 24.3 °F 14.0 °F 51% 29.94 in 10.0 mi NW 5.8 mph - N/A   Clear
12:55 AM 30.2 °F 18.5 °F 14.0 °F 51% 29.93 in 10.0 mi NNW 17.3 mph - N/A   Clear
1:15 AM 30.2 °F 18.5 °F 14.0 °F 51% 29.93 in 10.0 mi NW 17.3 mph - N/A   Clear
1:35 AM 30.2 °F 20.2 °F 14.0 °F 51% 29.93 in 10.0 mi NNW 12.7 mph 23.0 mph N/A   Clear
1:55 AM 28.4 °F 16.6 °F 14.0 °F 55% 29.93 in 10.0 mi NW 16.1 mph 23.0 mph N/A   Clear
2:15 AM 28.4 °F 15.4 °F 15.8 °F 59% 29.93 in 10.0 mi NNW 19.6 mph 24.2 mph N/A   Clear
2:35 AM 28.4 °F 15.8 °F 15.8 °F 59% 29.94 in 10.0 mi NNW 18.4 mph - N/A   Clear
2:55 AM 28.4 °F 17.5 °F 15.8 °F 59% 29.94 in 10.0 mi NNW 13.8 mph - N/A   Clear
3:15 AM 28.4 °F 19.1 °F 15.8 °F 59% 29.95 in 10.0 mi NNW 10.4 mph - N/A   Clear
3:35 AM 30.2 °F 24.3 °F 15.8 °F 55% 29.95 in 10.0 mi NW 5.8 mph 18.4 mph N/A   Clear
3:55 AM 30.2 °F 21.3 °F 15.8 °F 55% 29.95 in 10.0 mi NW 10.4 mph - N/A   Clear
4:15 AM 30.2 °F 19.8 °F 15.8 °F 55% 29.95 in 10.0 mi NNW 13.8 mph 17.3 mph N/A   Clear
4:35 AM 28.4 °F 16.2 °F 15.8 °F 59% 29.95 in 10.0 mi NW 17.3 mph 23.0 mph N/A   Clear
4:55 AM 30.2 °F 19.8 °F 15.8 °F 55% 29.96 in 10.0 mi NW 13.8 mph - N/A   Clear
5:15 AM 28.4 °F 17.5 °F 15.8 °F 59% 29.97 in 10.0 mi NW 13.8 mph - N/A   Clear
5:35 AM 26.6 °F 20.0 °F 15.8 °F 64% 29.98 in 10.0 mi WNW 5.8 mph - N/A   Clear
5:55 AM 28.4 °F 19.1 °F 15.8 °F 59% 29.98 in 10.0 mi NW 10.4 mph 17.3 mph N/A   Clear
6:15 AM 30.2 °F 21.9 °F 15.8 °F 55% 29.98 in 10.0 mi NNW 9.2 mph - N/A   Clear
6:35 AM 28.4 °F 19.1 °F 14.0 °F 55% 29.99 in 10.0 mi NW 10.4 mph - N/A   Clear
6:55 AM 28.4 °F 18.0 °F 14.0 °F 55% 30.00 in 10.0 mi WNW 12.7 mph - N/A   Partly Cloudy
7:15 AM 26.6 °F 18.2 °F 14.0 °F 59% 30.00 in 10.0 mi West 8.1 mph - N/A   Scattered Clouds
7:35 AM 24.8 °F 16.9 °F 14.0 °F 64% 30.00 in 10.0 mi West 6.9 mph - N/A   Mostly Cloudy
7:55 AM 26.6 °F 18.2 °F 14.0 °F 59% 30.01 in 10.0 mi WNW 8.1 mph - N/A   Overcast
8:15 AM 30.2 °F 20.8 °F 15.8 °F 55% 30.01 in 10.0 mi NNW 11.5 mph - N/A   Overcast
8:35 AM 28.4 °F 19.1 °F 15.8 °F 59% 30.01 in 10.0 mi WNW 10.4 mph - N/A   Overcast
8:55 AM 30.2 °F 20.8 °F 15.8 °F 55% 30.02 in 10.0 mi WNW 11.5 mph - N/A   Mostly Cloudy
9:15 AM 30.2 °F 20.2 °F 15.8 °F 55% 30.02 in 10.0 mi WNW 12.7 mph - N/A   Partly Cloudy
9:35 AM 32.0 °F 22.5 °F 17.6 °F 55% 30.03 in 10.0 mi NW 12.7 mph - N/A   Clear
9:55 AM 33.8 °F 23.2 °F 15.8 °F 48% 30.03 in 10.0 mi NW 17.3 mph - N/A   Clear
10:15 AM 33.8 °F 21.9 °F 15.8 °F 48% 30.04 in 10.0 mi NW 21.9 mph - N/A   Clear
10:35 AM 32.0 °F 20.5 °F 15.8 °F 51% 30.04 in 10.0 mi NW 18.4 mph 24.2 mph N/A   Partly Cloudy
10:55 AM 33.8 °F 23.2 °F 15.8 °F 48% 30.05 in 10.0 mi NW 17.3 mph - N/A   Partly Cloudy
11:15 AM 35.6 °F 26.2 °F 15.8 °F 44% 30.04 in 10.0 mi NW 15.0 mph - N/A   Clear
11:35 AM 35.6 °F 24.5 °F 15.8 °F 44% 30.05 in 10.0 mi NNW 20.7 mph 26.5 mph N/A   Clear
11:55 AM 37.4 °F 28.5 °F 15.8 °F 41% 30.04 in 10.0 mi NNW 15.0 mph 21.9 mph N/A   Clear
12:15 PM 37.4 °F 27.5 °F 17.6 °F 45% 30.04 in 10.0 mi NW 18.4 mph 24.2 mph N/A   Clear
12:35 PM 37.4 °F 28.2 °F 15.8 °F 41% 30.04 in 10.0 mi WNW 16.1 mph - N/A   Clear
12:55 PM 37.4 °F 28.2 °F 15.8 °F 41% 30.04 in 10.0 mi NW 16.1 mph - N/A   Mostly Cloudy
1:15 PM 37.4 °F 27.5 °F 15.8 °F 41% 30.03 in 10.0 mi NW 18.4 mph 23.0 mph N/A   Scattered Clouds
1:35 PM 35.6 °F 25.9 °F 15.8 °F 44% 30.03 in 10.0 mi NNW 16.1 mph - N/A   Scattered Clouds
1:55 PM 35.6 °F 29.2 °F 14.0 °F 41% 30.02 in 10.0 mi WNW 8.1 mph - N/A   Mostly Cloudy
2:15 PM 35.6 °F 30.7 °F 14.0 °F 41% 30.02 in 10.0 mi WNW 5.8 mph - N/A   Overcast
2:35 PM 35.6 °F 27.5 °F 12.2 °F 38% 30.02 in 10.0 mi WNW 11.5 mph - N/A   Overcast
2:55 PM 35.6 °F 28.6 °F 14.0 °F 41% 30.02 in 10.0 mi NW 9.2 mph - N/A   Overcast
3:15 PM 35.6 °F 28.6 °F 14.0 °F 41% 30.03 in 10.0 mi WNW 9.2 mph - N/A   Overcast
3:35 PM 35.6 °F 27.5 °F 12.2 °F 38% 30.03 in 10.0 mi WNW 11.5 mph - N/A   Overcast
3:55 PM 35.6 °F 28.0 °F 12.2 °F 38% 30.04 in 10.0 mi WNW 10.4 mph - N/A   Overcast
4:15 PM 35.6 °F 28.0 °F 12.2 °F 38% 30.04 in 10.0 mi WNW 10.4 mph - N/A   Overcast
4:35 PM 35.6 °F 30.7 °F 12.2 °F 38% 30.04 in 10.0 mi North 5.8 mph - N/A   Overcast
4:55 PM 35.6 °F 32.8 °F 12.2 °F 38% 30.04 in 10.0 mi North 3.5 mph - N/A   Overcast
5:15 PM 35.6 °F 30.7 °F 15.8 °F 44% 30.04 in 10.0 mi North 5.8 mph - N/A   Overcast
5:35 PM 35.6 °F 29.9 °F 15.8 °F 44% 30.05 in 10.0 mi NNE 6.9 mph - N/A   Overcast
5:55 PM 35.6 °F 31.7 °F 15.8 °F 44% 30.05 in 10.0 mi North 4.6 mph - N/A   Overcast
6:15 PM 35.6 °F 30.7 °F 14.0 °F 41% 30.06 in 10.0 mi NNW 5.8 mph - N/A   Overcast
6:35 PM 33.8 °F 29.6 °F 14.0 °F 44% 30.06 in 10.0 mi NNE 4.6 mph - N/A   Overcast
6:55 PM 33.8 °F 30.8 °F 17.6 °F 52% 30.06 in 10.0 mi NE 3.5 mph - N/A   Overcast
7:15 PM 32.0 °F 26.4 °F 19.4 °F 60% 30.07 in 10.0 mi NE 5.8 mph - N/A   Overcast
7:35 PM 32.0 °F - 19.4 °F 60% 30.07 in 10.0 mi Calm Calm - N/A   Overcast
7:55 PM 33.8 °F - 19.4 °F 56% 30.07 in 10.0 mi Calm Calm - N/A   Overcast
8:15 PM 33.8 °F 30.8 °F 17.6 °F 52% 30.08 in 10.0 mi SW 3.5 mph - N/A   Overcast
8:35 PM 33.8 °F 28.6 °F 15.8 °F 48% 30.08 in 10.0 mi WSW 5.8 mph - N/A   Overcast
8:55 PM 33.8 °F 30.8 °F 15.8 °F 48% 30.08 in 10.0 mi SW 3.5 mph - N/A   Overcast
9:15 PM 33.8 °F 30.8 °F 15.8 °F 48% 30.08 in 10.0 mi SW 3.5 mph - N/A   Overcast
9:35 PM 33.8 °F 30.8 °F 15.8 °F 48% 30.08 in 10.0 mi WSW 3.5 mph - N/A   Overcast
9:55 PM 32.0 °F 28.7 °F 15.8 °F 51% 30.08 in 10.0 mi West 3.5 mph - N/A   Overcast
10:15 PM 32.0 °F 28.7 °F 14.0 °F 48% 30.08 in 10.0 mi West 3.5 mph - N/A   Overcast
10:35 PM 30.2 °F 24.3 °F 15.8 °F 55% 30.07 in 10.0 mi SW 5.8 mph - N/A   Overcast
10:55 PM 32.0 °F 28.7 °F 15.8 °F 51% 30.07 in 10.0 mi West 3.5 mph - N/A   Overcast
11:15 PM 30.2 °F 24.3 °F 15.8 °F 55% 30.07 in 10.0 mi WSW 5.8 mph - N/A   Overcast
11:35 PM 30.2 °F - 15.8 °F 55% 30.07 in 10.0 mi Calm Calm - N/A   Overcast
11:55 PM 32.0 °F - 14.0 °F 48% 30.07 in 10.0 mi Calm Calm - N/A   Overcast